Bangkok/Suvarnabhumi International Airport

Airport
ICAO code: 
VTBS
IATA Code: 
BKK
Summary
ICAO Region: 
APAC
Territory: 
Location: 
Bang Phli, Samut Prakan,
Serving: 
Bangkok
Elevation: 
5 ft
Coordinates: 
Aerial View: 
13° 41' 32.273" N, 100° 45' 2.509" E
Airport LOS: 
Parallel Runway Operation
Airport WX: 
Cumulonimbus
Metar
Observation
VTBS 040900Z 19013KT 9999 FEW020 31/23 Q1003 NOSIG
Station
Chon Buri
Date/Time
2022-07-04 09:00:00
Wind direction
190°
Wind speed
13 kts
Lowest cloud amount
few clouds
Temperature
31°C
Dew point
23°C
Humidity
62%
QNH
1003 hPa
Weather condition
n/a

Description

International airport serving the city of Bangkok.

Climatology

Tropical Savanna climate (Köppen climate classification Aw)

Runways

Designator Length Width Surface Rops
01L/19R 3700 60 ASP Yes/Yes
01R/19L 4000 60 ASP Yes/Yes
Airport map: 
Aerial View: 

SKYbrary Partners:

Safety knowledge contributed by: